DW9855 Weather Reports


time (UTC)temp
F
wind
direction
speed
knots
gust
knots
rain 1hr
in
rain 24hr
in
rain mn
in
humidity
%
barometer
mb
20260510190040 56 34 3.5 9.6 0.00 0.00 0.00 55 1014.8
20260510184654 56 31 1.7 8.7 0.00 0.00 0.00 54 1014.8
20260510183053 57 29 1.7 7.8 0.00 0.00 0.00 55 1014.8
20260510181552 56 40 2.6 11.3 0.00 0.00 0.00 56 1014.9
20260510174542 56 38 3.5 11.3 0.00 0.00 0.00 57 1015.0
20260510173040 55 22 6.1 13.0 0.00 0.00 0.00 58 1015.1
20260510171539 55 29 5.2 11.3 0.00 0.00 0.00 57 1015.2
20260510170043 56 33 6.1 13.9 0.00 0.00 0.00 57 1015.3
20260510164558 56 38 5.2 13.9 0.00 0.00 0.00 59 1015.3
20260510163057 55 34 6.1 13.0 0.00 0.00 0.00 59 1015.5
20260510161552 55 30 5.2 14.8 0.00 0.00 0.00 60 1015.7
20260510160051 55 32 7.0 12.2 0.00 0.00 0.00 61 1015.9
20260510154555 55 24 4.3 12.2 0.00 0.00 0.00 62 1016.1
20260510153047 55 26 6.1 13.9 0.00 0.00 0.00 63 1016.2
20260510151553 55 32 7.0 12.2 0.00 0.00 0.00 66 1016.4
20260510150045 54 30 2.6 11.3 0.00 0.00 0.00 66 1016.5
20260510144554 54 36 5.2 12.2 0.00 0.00 0.00 67 1016.7
20260510143052 54 39 8.7 13.9 0.00 0.00 0.00 66 1016.9
20260510141535 54 27 2.6 13.0 0.00 0.00 0.00 68 1017.2
20260510140034 53 23 4.3 15.6 0.00 0.00 0.00 68 1017.3
20260510134548 53 27 3.5 13.9 0.00 0.00 0.00 69 1017.3
20260510133048 53 71 7.8 15.6 0.00 0.00 0.00 69 1017.3
20260510131549 53 29 6.1 13.0 0.00 0.00 0.00 70 1017.3
20260510130044 53 24 4.3 13.9 0.00 0.00 0.00 71 1017.4
20260510124541 53 33 7.0 16.5 0.00 0.00 0.00 71 1017.5
20260510123043 53 35 3.5 13.9 0.00 0.00 0.00 72 1017.7
20260510121539 53 35 5.2 16.5 0.00 0.00 0.00 73 1017.7
20260510120037 53 30 8.7 18.2 0.00 0.00 0.00 72 1017.8
20260510114549 52 5 5.2 15.6 0.00 0.00 0.00 75 1018.0
20260510113054 51 46 7.0 14.8 0.00 0.00 0.00 76 1018.2
20260510111546 52 36 8.7 15.6 0.00 0.00 0.00 76 1018.4
20260510110050 51 34 6.1 14.8 0.00 0.00 0.00 77 1018.4
20260510104541 51 35 7.0 16.5 0.00 0.00 0.00 77 1018.5
20260510103040 50 31 5.2 16.5 0.00 0.00 0.00 79 1018.6
20260510101538 50 34 7.0 20.9 0.00 0.00 0.00 80 1018.7
20260510100037 50 34 8.7 14.8 0.00 0.00 0.00 80 1018.7
20260510094551 50 26 7.8 13.9 0.00 0.00 0.00 80 1018.7
20260510093048 50 32 7.8 15.6 0.00 0.00 0.00 79 1018.7
20260510091548 50 31 8.7 14.8 0.00 0.00 0.00 79 1018.8
20260510090048 51 30 5.2 14.8 0.00 0.00 0.00 76 1018.8
20260510084543 52 18 5.2 14.8 0.00 0.00 0.00 76 1019.0
20260510083042 52 33 8.7 18.2 0.00 0.00 0.00 76 1019.1
20260510081541 51 32 4.3 16.5 0.00 0.00 0.00 78 1018.9
20260510080054 51 34 6.1 16.5 0.00 0.00 0.00 80 1018.9
20260510074553 51 33 7.8 15.6 0.00 0.00 0.00 79 1018.8
20260510073111 51 40 6.1 15.6 0.00 0.00 0.00 81 1018.8
20260510071550 50 37 8.7 14.8 0.00 0.00 0.00 79 1018.8
20260510070056 50 30 6.1 13.0 0.00 0.00 0.00 80 1018.7
20260510064600 49 30 3.5 13.9 0.00 0.00 0.00 82 1018.8
20260510063042 48 33 7.0 14.8 0.00 0.00 0.00 83 1018.8
20260510061540 48 16 1.7 9.6 0.00 0.00 0.00 85 1018.7
20260510060038 48 19 6.1 11.3 0.00 0.00 0.00 85 1018.7
20260510054554 48 38 5.2 9.6 0.00 0.00 0.00 85 1018.7
20260510053053 48 35 4.3 8.7 0.00 0.00 0.00 84 1018.7
20260510051553 48 36 2.6 12.2 0.00 0.00 0.00 84 1018.7
20260510050050 47 30 3.5 9.6 0.00 0.00 0.00 84 1018.8
20260510044539 48 30 5.2 10.4 0.00 0.00 0.00 84 1018.7
20260510043041 48 30 5.2 13.0 0.00 0.00 0.00 84 1018.7
20260510041539 47 33 3.5 10.4 0.00 0.00 0.00 84 1018.8
20260510040044 47 30 4.3 9.6 0.00 0.00 0.00 83 1018.9
20260510034607 47 34 3.5 10.4 0.00 0.00 0.00 83 1018.9
20260510033051 47 30 1.7 7.0 0.00 0.00 0.00 83 1019.0
20260510031544 48 34 6.1 10.4 0.00 0.00 0.00 84 1019.1
20260510030041 48 35 4.3 12.2 0.00 0.00 0.00 84 1019.1
20260510024555 48 36 5.2 11.3 0.00 0.00 0.00 84 1019.0
20260510023051 48 33 5.2 10.4 0.00 0.00 0.00 84 1019.1
20260510021559 48 34 1.7 9.6 0.00 0.00 0.00 84 1019.1
20260510020049 49 26 2.6 13.0 0.00 0.00 0.00 84 1019.0
20260510014551 49 24 7.0 15.6 0.00 0.00 0.00 84 1019.1
20260510013042 49 23 8.7 16.5 0.00 0.00 0.00 84 1019.0
20260510011540 49 28 7.8 18.2 0.00 0.00 0.00 84 1019.0
20260510010044 50 35 7.8 14.8 0.00 0.00 0.00 84 1019.0
20260510004556 50 34 4.3 13.0 0.00 0.00 0.00 84 1019.2
20260510003104 51 28 7.8 12.2 0.00 0.00 0.00 83 1019.2
20260510001549 51 31 5.2 14.8 0.00 0.00 0.00 82 1019.1
20260509234543 52 29 5.2 13.0 0.00 0.00 0.00 81 1018.7
20260509233041 52 37 6.1 14.8 0.00 0.00 0.00 81 1018.4
20260509231538 53 35 6.1 12.2 0.00 0.00 0.00 81 1018.5
20260509230035 53 26 7.8 14.8 0.00 0.00 0.00 81 1018.2
20260509224546 54 28 7.0 14.8 0.00 0.00 0.00 81 1018.2
20260509223046 55 35 7.8 14.8 0.00 0.00 0.00 80 1018.2
20260509221554 55 28 6.1 18.2 0.00 0.00 0.00 79 1018.3
20260509220046 56 24 8.7 15.6 0.00 0.00 0.00 78 1018.2
20260509214543 56 35 9.6 18.2 0.00 0.00 0.00 77 1018.1
20260509213036 57 29 10.4 18.2 0.00 0.00 0.00 76 1018.0
20260509211535 57 39 11.3 19.1 0.00 0.00 0.00 75 1017.7
20260509210041 58 36 8.7 18.2 0.00 0.00 0.00 76 1017.5
20260509204544 58 36 6.1 13.9 0.00 0.00 0.00 75 1017.5
20260509203045 58 34 6.1 17.4 0.00 0.00 0.00 74 1017.3
20260509201544 59 227 5.2 14.8 0.00 0.00 0.00 72 1017.3
20260509200048 60 29 11.3 17.4 0.00 0.00 0.00 67 1017.2
20260509194545 63 36 2.6 7.8 0.00 0.00 0.00 55 1017.0
20260509193037 63 34 2.6 8.7 0.00 0.00 0.00 54 1016.8
20260509191534 64 34 3.5 9.6 0.00 0.00 0.00 52 1016.8